Temperature
21 20 20 20 21 22 23 24 25 25 25 25 25 25 23 22 21 19 18 19 18 18 18 18 18 18 18 18 18 18 18 18 18 18 18 18 18 18 18 17 17 17 17 17 17 18 18 18 18
21 20 21 21 21 22 23 24 24 25 25 25 25 24 23 21 19 18 18 18 18 18 18 18 18 18 18 18 17 17 17 17 17 17 17 17 17 17 17 17 17 17 17 17 17 17 17 18 18
21 21 21 22 23 23 23 24 24 25 24 25 24 23 21 20 19 18 18 18 18 18 18 18 18 18 18 17 17 17 17 17 17 17 17 17 17 17 17 17 17 17 17 17 17 17 17 17 17
21 21 22 22 23 24 24 24 25 25 24 24 24 22 20 19 19 18 18 18 18 18 18 18 18 18 18 17 17 17 17 17 17 17 17 17 17 17 17 17 17 17 17 17 17 17 17 17 17
21 22 22 23 24 24 25 25 24 24 24 24 23 21 19 19 19 18 18 18 18 18 18 18 18 18 18 17 17 17 17 17 17 17 17 16 17 17 17 17 17 17 17 17 17 17 17 17 17
22 23 22 23 23 24 24 24 24 24 24 24 22 21 19 18 18 18 18 18 18 18 18 18 18 18 17 17 17 17 17 17 17 17 17 17 17 17 17 17 17 17 17 17 17 17 17 17 17
22 22 23 23 23 23 24 24 24 24 24 24 23 20 18 18 18 18 18 18 18 18 18 18 18 17 17 17 17 17 17 17 17 17 17 17 17 17 17 16 16 16 16 16 17 17 17 17 17
22 22 23 23 23 23 24 24 23 23 23 23 22 21 19 18 18 18 18 18 18 18 18 18 18 17 17 17 17 17 17 17 17 17 17 17 17 17 16 16 16 16 16 16 17 17 17 17 17
22 22 22 23 23 23 24 24 23 23 22 22 21 20 19 18 18 18 18 18 18 18 18 18 18 17 17 17 17 17 17 17 17 17 17 17 16 16 16 16 16 16 16 16 17 17 17 17 17
23 21 22 23 24 23 23 23 23 23 22 21 20 19 18 18 18 18 18 18 18 18 18 18 18 18 17 17 17 17 17 17 17 17 17 17 17 17 17 17 17 16 16 16 17 17 17 17 17
23 22 23 24 24 23 23 23 23 23 21 21 20 19 18 18 18 18 18 18 18 18 18 18 18 18 18 17 17 17 17 17 17 17 17 17 17 17 17 17 17 16 16 16 17 17 17 17 17
23 23 23 23 23 23 23 23 22 22 21 21 20 19 19 19 19 19 18 18 18 18 18 18 18 18 18 18 17 17 17 17 17 17 17 17 17 17 17 17 17 16 16 16 17 17 17 17 17
23 23 23 23 23 23 23 23 22 21 21 20 20 19 19 19 19 19 19 18 18 18 18 18 18 18 18 18 18 17 17 17 17 17 17 17 17 17 17 17 17 17 17 17 17 17 17 17 17
24 23 23 23 23 23 23 23 22 21 21 20 20 20 19 19 19 19 19 18 18 18 18 18 18 18 18 18 18 17 17 17 17 17 17 17 17 17 17 17 17 17 17 17 17 17 17 17 17
23 23 23 23 23 23 23 22 22 21 21 20 20 20 19 19 19 19 19 19 18 18 18 18 18 18 18 18 18 17 17 17 17 17 17 17 17 17 17 17 17 17 17 17 17 17 17 16 16
23 22 21 23 23 23 23 21 22 21 21 21 20 20 20 19 19 19 19 19 18 18 18 18 18 18 17 17 17 17 17 17 17 17 17 17 17 17 17 17 16 17 16 16 16 16 16 16 16
22 22 22 22 24 24 23 21 22 22 21 21 21 20 20 19 19 19 19 19 18 18 18 18 17 17 17 17 17 17 17 17 17 17 17 17 17 17 16 16 16 16 16 16 16 16 16 16 16
22 22 22 22 23 24 22 22 22 22 21 21 21 20 20 20 19 19 19 19 18 18 18 18 17 17 17 17 17 17 17 17 16 16 16 16 16 16 16 16 16 16 16 16 16 16 16 16 16
23 23 22 23 24 23 22 22 22 22 22 21 21 20 20 20 20 19 19 19 18 18 18 18 17 17 17 17 17 17 16 16 16 16 16 16 16 16 16 16 16 16 16 16 16 16 16 16 16
23 22 22 23 24 23 22 22 22 22 22 22 21 21 21 20 20 19 19 19 18 18 18 18 17 17 17 17 16 16 16 16 16 16 16 16 16 16 16 16 16 16 16 16 16 16 16 16 16
23 22 22 22 23 23 22 21 22 22 22 22 22 21 21 21 20 19 19 19 18 18 18 18 17 17 17 17 17 16 16 16 16 16 16 16 16 16 16 16 16 15 15 15 15 15 15 16 16
22 23 23 23 22 22 22 20 22 22 22 22 22 21 21 21 20 20 19 19 18 18 18 18 17 17 17 17 17 16 16 16 16 16 16 16 16 15 15 15 15 15 15 15 15 15 15 15 16
23 24 24 23 22 22 23 22 22 23 22 22 22 22 21 21 20 20 19 19 19 18 18 18 17 17 17 17 17 16 16 16 16 16 16 16 16 15 15 15 15 15 15 15 15 15 15 15 15
24 24 23 23 22 21 23 22 21 22 22 22 22 22 21 21 21 20 20 19 19 18 18 18 17 17 17 17 17 16 16 16 16 16 16 16 15 15 15 15 15 15 15 15 15 15 15 15 15
23 22 21 21 20 21 24 23 22 24 24 24 23 22 22 21 21 20 20 19 19 18 18 17 17 17 17 17 16 16 16 16 16 16 16 16 16 15 15 15 15 15 15 15 15 15 15 15 15
23 22 21 20 21 22 24 23 23 25 24 24 23 22 22 21 21 20 20 19 19 18 18 17 17 17 17 17 17 16 16 16 16 16 16 16 16 15 16 15 15 15 15 15 15 15 15 15 15
23 23 23 22 22 22 22 23 23 24 24 24 23 22 21 21 21 20 20 19 19 18 18 17 17 17 17 17 17 16 16 16 16 16 16 16 16 16 16 16 15 15 15 15 15 15 15 15 15
24 24 23 21 20 21 21 22 21 22 23 23 23 22 21 21 21 20 19 19 18 18 18 17 17 17 17 17 16 16 16 16 16 16 16 16 16 16 16 15 15 15 15 15 15 15 15 15 15
23 23 23 22 21 20 20 21 23 23 23 23 23 22 21 21 21 20 19 19 18 18 17 17 17 17 17 17 16 16 16 16 16 16 16 16 16 16 15 15 15 15 15 15 15 15 15 14 14
24 24 23 21 21 22 21 21 24 24 24 23 23 22 21 21 20 20 19 19 18 18 17 17 17 17 17 16 16 16 16 16 16 16 16 16 16 16 15 15 15 15 15 15 15 15 14 14 14
Wind_Speed
10 9 6 2 3 3 1 3 6 6 5 8 9 10 13 12 9 9 3 8 13 14 14 14 14 14 14 13 13 13 13 13 13 13 12 11 11 11 11 11 11 11 11 11 10 10 10 10 9
9 5 3 3 3 2 1 5 8 9 8 7 8 12 13 11 10 8 5 9 12 13 14 14 14 14 13 13 13 14 13 13 13 12 11 11 11 11 11 10 10 10 10 10 9 9 9 9 8
9 6 3 3 2 0 3 7 9 9 7 6 8 11 8 7 8 5 7 11 12 13 15 14 14 14 13 13 13 13 12 12 12 12 11 10 10 10 10 10 10 10 9 9 9 8 9 8 8
5 3 3 3 1 5 7 7 7 8 6 6 9 9 8 7 6 9 11 13 14 13 14 14 13 13 13 13 13 13 12 12 12 11 10 9 9 9 10 10 9 9 9 9 9 8 8 8 7
4 3 4 2 3 5 7 7 6 6 5 8 12 10 8 8 11 12 11 13 14 13 14 14 13 12 13 13 13 12 11 11 11 10 10 9 9 9 9 9 9 9 9 9 9 8 7 7 6
3 3 3 2 5 6 6 5 6 7 8 10 12 11 7 8 10 10 11 11 12 13 13 13 13 13 13 13 12 12 11 11 10 10 9 8 8 8 8 8 8 8 8 8 8 7 6 6 4
3 3 3 3 6 5 5 4 6 7 8 7 8 9 7 8 8 9 10 11 11 12 12 12 13 12 13 13 12 11 11 10 9 8 6 6 6 8 8 8 7 7 7 7 6 6 5 4 3
3 3 2 2 5 5 5 5 6 7 7 7 8 8 9 10 9 10 10 11 10 9 9 10 12 13 12 12 12 11 10 8 8 7 5 5 6 7 7 8 7 7 6 5 4 4 3 3 1
3 2 2 2 4 5 6 7 7 6 8 9 11 12 14 14 12 11 9 9 8 8 7 7 8 9 12 12 12 11 10 8 8 7 7 6 6 7 7 9 8 6 5 4 3 3 3 3 3
1 1 2 3 6 6 6 7 7 6 8 10 13 15 16 13 12 11 9 9 8 6 6 6 6 6 8 8 10 9 8 8 7 6 5 4 4 7 9 9 8 6 5 4 4 4 4 5 5
1 0 3 5 6 7 7 7 7 7 7 9 12 15 13 12 11 10 9 8 7 6 5 5 5 6 7 5 6 5 5 5 4 4 5 5 5 6 8 7 6 6 5 4 4 5 5 4 3
2 3 3 5 6 6 6 7 7 7 8 10 13 13 12 11 10 9 9 8 7 7 5 4 4 4 6 6 4 4 3 2 3 2 6 5 3 3 4 4 4 4 3 2 2 2 1 1 3
3 3 5 6 6 5 6 8 8 9 11 12 13 12 10 10 9 8 9 8 8 6 4 4 4 4 5 4 2 4 3 2 4 2 4 6 3 2 2 2 2 2 3 1 0 1 3 4 4
4 5 5 6 6 6 6 6 7 9 12 12 11 10 9 9 9 8 8 8 8 6 6 4 4 4 5 4 3 3 4 3 5 3 4 7 5 2 2 3 2 2 3 2 2 3 3 3 3
4 6 5 4 5 5 5 5 7 10 12 12 10 9 9 8 8 7 7 7 7 7 6 4 4 4 5 4 3 4 4 5 4 3 5 7 5 4 4 2 2 2 3 4 4 4 3 2 2
6 5 5 5 6 5 4 4 8 10 11 10 9 9 8 7 7 7 7 7 8 7 7 5 5 5 5 4 4 3 4 4 4 4 5 5 6 6 4 2 2 4 6 4 3 4 3 3 3
5 5 6 7 7 6 5 4 7 8 9 9 9 10 9 8 7 7 7 7 7 8 8 6 5 6 5 4 3 4 4 4 4 6 5 5 6 6 6 2 2 6 4 3 3 4 3 3 3
5 5 5 6 7 7 6 6 7 8 9 9 9 9 9 10 8 8 7 7 7 8 8 7 6 6 5 3 3 3 3 3 5 5 5 6 6 7 5 2 5 6 4 3 3 3 3 2 2
4 3 3 4 6 6 6 7 8 8 8 9 9 9 10 10 10 8 7 7 7 7 8 8 7 6 5 3 3 2 2 2 3 3 6 6 7 6 5 3 4 4 4 3 4 3 3 2 3
4 3 4 4 6 5 6 6 7 8 8 8 9 10 9 10 10 9 8 7 7 7 7 7 7 6 6 3 3 3 2 3 3 3 4 4 5 5 4 4 3 3 3 4 4 3 2 2 2
5 4 5 5 5 5 5 6 8 9 9 8 8 8 10 10 12 11 10 8 7 7 7 8 7 7 7 5 3 3 3 2 3 3 3 4 6 6 5 4 3 2 3 3 2 3 2 2 2
4 5 6 7 6 5 8 5 9 11 11 10 9 8 9 9 10 10 10 10 8 7 6 7 7 7 6 6 4 4 4 3 3 3 2 2 5 6 5 5 4 3 3 3 2 3 2 2 2
3 4 5 7 7 6 9 6 5 11 12 12 11 10 9 9 10 10 10 10 9 8 6 6 6 6 6 6 5 4 3 3 3 3 4 3 3 4 5 5 4 3 3 3 4 5 4 3 2
3 4 6 7 5 6 9 7 4 7 12 13 12 11 10 9 9 9 9 9 9 7 6 6 6 5 5 6 5 5 5 4 4 4 3 3 3 2 3 4 4 3 3 3 3 3 4 3 3
5 3 2 4 5 5 7 5 3 5 9 10 11 10 10 10 10 10 10 10 9 9 7 7 7 6 5 6 6 6 5 5 5 4 3 3 3 2 2 3 3 3 3 4 3 3 3 3 3
6 7 4 3 3 2 4 3 4 6 7 9 9 9 9 9 9 10 9 9 10 10 8 8 8 7 6 5 5 6 6 3 3 3 3 3 3 2 3 4 4 4 4 4 4 3 3 3 3
5 6 6 5 5 2 2 4 6 7 7 7 9 9 8 8 8 9 10 10 10 10 9 8 9 8 7 6 5 5 5 4 3 4 4 3 3 3 4 4 4 4 5 4 4 4 4 4 4
7 5 3 2 2 2 2 3 4 9 8 8 8 9 8 7 8 9 9 10 10 9 9 8 8 8 7 6 5 5 5 5 3 3 4 4 3 3 4 4 4 4 4 5 5 4 3 4 3
7 5 3 3 3 2 1 1 2 9 9 8 8 7 7 8 8 9 8 8 9 9 9 8 8 8 7 7 6 6 5 5 5 3 4 4 3 4 4 3 4 4 4 4 4 3 3 3 2
6 6 4 3 3 3 1 1 2 7 8 8 7 7 6 7 8 8 8 8 8 9 10 9 8 7 7 7 6 6 6 5 5 4 4 4 3 3 3 4 4 4 3 3 3 3 2 3 2
Wind_Direction
272 248 236 237 248 239 237 70 76 72 69 57 57 69 69 53 61 96 129 108 110 113 112 104 100 98 96 95 96 99 99 97 94 90 86 86 85 84 83 81 79 78 78 77 77 78 78 76 75
279 263 253 237 255 250 102 88 76 71 82 82 70 71 73 67 76 97 106 99 104 107 108 104 103 101 100 100 100 100 100 99 96 92 87 85 85 84 81 81 79 77 76 75 75 76 76 74 74
266 266 256 244 266 27 84 84 88 81 74 73 76 63 60 71 84 94 108 105 102 102 103 106 106 104 104 104 102 101 100 100 97 94 90 86 84 85 82 80 78 77 75 73 73 74 74 74 75
260 247 241 245 11 53 85 91 95 95 81 78 88 76 71 65 91 113 111 106 103 103 104 108 107 107 106 106 106 103 100 99 96 94 92 88 85 85 85 81 78 77 75 74 73 75 73 73 76
244 255 245 216 84 71 72 80 90 94 93 85 87 91 82 76 97 107 106 105 104 106 108 110 109 113 112 110 109 105 103 99 96 94 92 91 89 90 87 85 81 78 76 74 72 74 74 76 72
260 256 252 164 113 91 83 78 82 87 89 89 97 100 93 96 97 104 105 104 106 109 110 113 112 120 121 115 111 108 106 102 100 98 100 99 99 99 95 91 87 83 81 77 73 75 78 75 68
285 281 255 135 117 108 96 88 83 85 84 83 98 104 114 106 103 105 103 104 104 108 115 121 126 120 120 120 116 114 113 112 110 109 114 119 118 114 109 100 94 90 87 84 79 81 83 81 71
295 295 268 124 119 108 98 94 83 81 84 78 85 112 127 127 116 104 102 102 106 110 116 125 128 129 128 123 123 124 125 129 135 143 157 156 147 138 127 118 108 102 99 98 98 102 109 117 122
282 277 306 92 116 112 115 109 90 83 83 70 69 95 121 129 120 110 108 105 103 105 110 119 124 128 129 132 134 142 144 152 162 178 189 191 183 153 131 117 123 123 126 127 140 154 172 182 213
239 309 26 63 97 113 119 115 117 109 97 93 90 100 120 130 128 124 122 117 113 114 115 114 122 121 122 127 140 147 145 160 173 175 178 189 128 115 121 132 140 151 160 166 193 212 219 221 212
195 112 79 92 93 113 118 115 110 108 100 110 118 125 132 136 133 131 127 124 123 117 107 120 125 133 129 120 130 128 134 153 155 141 123 102 102 125 132 148 158 174 184 193 197 225 234 225 186
118 98 96 97 95 108 116 113 100 93 102 112 121 130 136 137 134 133 127 123 117 107 106 109 107 110 117 113 123 126 121 124 100 94 107 97 83 79 98 120 148 168 168 150 186 220 253 40 72
144 134 127 112 114 112 111 112 110 103 109 115 124 130 135 134 131 126 123 124 117 118 115 98 89 89 94 94 111 105 89 89 94 51 85 91 80 74 77 95 82 87 112 124 46 53 41 47 44
140 135 131 132 134 136 124 122 122 121 126 127 131 134 136 134 135 133 134 133 130 135 122 104 96 88 96 105 93 88 100 92 83 48 66 82 82 83 65 69 69 52 64 62 61 73 58 58 49
143 147 150 155 156 150 136 138 137 138 139 137 139 140 137 140 141 142 142 142 139 133 121 117 108 91 81 75 72 87 86 87 83 47 45 71 71 65 67 60 56 49 60 59 50 56 62 78 69
181 181 174 176 179 176 180 166 147 151 148 143 145 143 145 152 155 148 149 150 140 133 127 123 120 101 81 68 59 70 78 77 86 68 41 53 66 69 64 44 28 56 57 55 58 54 46 57 61
206 198 180 173 189 177 184 169 155 160 158 155 156 153 157 163 162 154 159 147 139 138 135 137 123 109 95 87 77 64 74 64 67 67 42 35 52 66 74 42 21 57 51 42 58 59 52 59 63
200 200 188 176 178 183 182 172 165 176 169 168 168 166 167 168 166 160 159 147 145 146 144 139 123 119 110 100 92 74 64 61 62 65 51 38 42 57 67 62 56 53 52 45 57 67 55 49 52
236 210 194 175 172 183 184 183 175 177 178 178 176 179 174 171 167 161 160 153 153 151 143 139 140 132 124 112 103 96 85 75 62 61 58 42 44 43 52 53 60 53 54 50 66 60 56 43 60
242 220 203 177 180 189 185 200 194 188 188 184 181 178 172 168 164 161 160 157 159 152 144 146 145 142 133 128 130 127 118 101 88 58 54 43 51 51 56 69 78 82 71 48 50 55 42 34 62
222 224 210 192 190 206 202 215 210 194 188 190 183 177 177 175 167 165 167 161 159 157 158 156 155 147 141 141 124 111 88 82 93 85 57 33 50 49 37 56 69 76 94 81 57 71 66 22 22
226 218 215 205 205 211 210 223 212 195 186 187 183 179 176 171 165 165 168 163 167 161 156 155 158 147 141 137 133 138 132 123 115 114 109 77 60 55 39 47 58 64 74 75 48 57 58 56 22
248 241 236 228 231 241 222 230 207 184 184 188 186 180 177 166 163 166 166 162 163 158 156 153 151 147 143 139 139 140 120 121 112 109 104 97 78 67 54 47 55 60 69 73 62 51 37 46 44
249 247 245 237 239 244 229 217 200 189 184 183 181 178 175 171 166 166 162 156 153 149 151 144 140 138 137 140 149 145 134 126 115 104 102 101 92 68 67 70 66 63 69 71 69 73 62 48 43
220 228 237 220 215 231 217 200 174 155 165 168 170 173 173 173 171 168 160 156 151 150 152 147 145 145 147 156 160 149 143 140 133 129 118 107 102 80 65 61 63 60 70 75 67 67 75 72 68
218 215 233 248 231 225 198 171 130 131 138 151 155 158 162 170 172 165 158 155 153 155 158 154 153 156 163 171 165 151 142 138 137 135 127 117 116 120 107 74 66 59 60 67 61 62 54 56 64
227 235 258 288 292 253 178 124 124 123 134 149 151 152 163 170 164 159 158 160 157 158 161 163 160 160 165 170 165 153 146 142 139 135 127 123 118 119 104 96 89 69 63 62 65 67 57 54 41
245 251 257 259 276 242 168 176 172 155 155 157 153 158 166 165 162 161 161 160 159 159 163 163 161 163 160 163 164 152 144 140 130 132 133 123 118 102 99 104 105 95 80 69 62 65 58 81 68
222 230 245 260 265 279 192 92 150 152 151 159 158 155 162 164 162 158 154 155 154 156 160 159 163 160 161 162 156 149 148 141 132 129 126 122 120 122 126 124 114 104 97 93 83 74 49 67 75
238 236 231 248 266 261 302 44 133 135 143 149 152 153 157 152 151 147 149 151 153 160 165 166 166 161 159 156 147 150 154 147 143 143 138 137 136 129 126 121 115 110 104 106 110 104 83 71 66
Height
1493 1495 1497 1499 1499 1500 1498 1491 1487 1488 1489 1492 1492 1494 1499 1504 1510 1522 1522 1521 1521 1522 1524 1525 1527 1528 1529 1531 1532 1533 1534 1535 1536 1538 1539 1540 1540 1541 1542 1542 1543 1544 1545 1545 1546 1547 1547 1548 1548
1493 1496 1498 1498 1500 1504 1499 1491 1491 1491 1493 1494 1495 1498 1502 1509 1515 1519 1521 1522 1523 1524 1525 1527 1528 1530 1531 1532 1533 1534 1536 1537 1538 1539 1540 1541 1542 1542 1543 1543 1544 1545 1546 1546 1547 1547 1548 1549 1549
1494 1497 1498 1496 1496 1500 1499 1492 1492 1494 1495 1496 1499 1503 1508 1514 1517 1520 1522 1523 1524 1525 1526 1528 1529 1531 1532 1533 1534 1536 1537 1538 1539 1540 1541 1542 1543 1543 1544 1544 1545 1546 1546 1547 1548 1548 1549 1549 1550
1497 1498 1497 1497 1497 1492 1492 1492 1493 1495 1497 1498 1501 1507 1514 1518 1519 1521 1523 1524 1525 1526 1528 1529 1531 1532 1533 1535 1536 1537 1538 1540 1541 1542 1542 1543 1544 1544 1545 1545 1546 1547 1547 1548 1548 1549 1550 1550 1551
1497 1497 1497 1497 1496 1493 1492 1493 1495 1497 1499 1500 1503 1512 1517 1520 1521 1523 1524 1525 1526 1528 1529 1531 1532 1533 1534 1536 1537 1538 1540 1541 1542 1543 1543 1544 1545 1545 1546 1546 1547 1547 1548 1548 1549 1550 1550 1551 1551
1498 1494 1499 1501 1498 1495 1495 1497 1497 1499 1501 1503 1507 1513 1520 1522 1523 1524 1526 1527 1528 1529 1531 1532 1533 1534 1536 1537 1539 1540 1541 1542 1543 1544 1545 1545 1546 1546 1547 1547 1548 1548 1549 1549 1550 1551 1551 1552 1552
1498 1496 1498 1497 1499 1499 1498 1498 1500 1502 1503 1506 1508 1514 1521 1524 1525 1526 1527 1529 1530 1531 1532 1534 1535 1536 1538 1539 1541 1542 1543 1544 1544 1545 1546 1547 1547 1548 1548 1548 1549 1549 1550 1550 1551 1552 1552 1553 1553
1497 1496 1496 1496 1500 1502 1500 1500 1502 1505 1506 1508 1510 1515 1521 1525 1526 1527 1529 1531 1532 1534 1535 1536 1537 1538 1539 1541 1542 1543 1544 1545 1546 1547 1547 1548 1549 1549 1550 1550 1550 1551 1551 1552 1552 1553 1553 1554 1554
1497 1500 1501 1498 1500 1501 1501 1502 1505 1507 1509 1511 1513 1515 1521 1525 1527 1529 1531 1532 1534 1536 1537 1539 1540 1541 1542 1543 1544 1545 1546 1547 1547 1548 1549 1550 1550 1551 1551 1552 1552 1552 1553 1553 1553 1554 1555 1555 1556
1497 1502 1500 1496 1496 1500 1502 1503 1506 1509 1511 1514 1517 1520 1523 1526 1528 1530 1532 1534 1536 1537 1539 1540 1542 1543 1544 1546 1546 1547 1548 1549 1549 1550 1551 1552 1553 1553 1553 1554 1554 1554 1554 1554 1555 1555 1556 1556 1557
1497 1500 1498 1498 1499 1501 1503 1505 1508 1510 1514 1516 1519 1522 1525 1527 1529 1531 1533 1535 1537 1539 1541 1542 1544 1545 1546 1547 1548 1549 1550 1551 1552 1552 1553 1554 1554 1554 1555 1555 1555 1555 1555 1556 1556 1556 1557 1557 1558
1498 1499 1500 1500 1502 1503 1505 1507 1510 1512 1516 1518 1520 1523 1526 1528 1530 1532 1534 1537 1539 1540 1542 1544 1545 1546 1548 1549 1550 1551 1552 1553 1553 1554 1555 1555 1556 1556 1556 1556 1556 1557 1557 1557 1557 1557 1558 1558 1559
1499 1501 1502 1503 1505 1506 1507 1509 1512 1515 1518 1520 1523 1525 1527 1529 1532 1534 1536 1538 1540 1542 1544 1545 1546 1548 1549 1550 1552 1553 1553 1554 1555 1555 1556 1556 1556 1557 1557 1557 1557 1558 1558 1558 1558 1559 1559 1559 1559
1499 1501 1503 1504 1506 1507 1508 1511 1513 1517 1519 1522 1524 1527 1529 1531 1533 1535 1537 1539 1541 1543 1544 1546 1547 1549 1550 1551 1552 1554 1555 1555 1556 1556 1557 1557 1558 1558 1558 1558 1558 1559 1559 1559 1560 1559 1560 1560 1560
1500 1503 1505 1505 1506 1508 1509 1513 1514 1518 1520 1523 1525 1527 1530 1532 1534 1535 1537 1539 1541 1543 1545 1547 1548 1550 1551 1552 1553 1555 1555 1556 1557 1557 1558 1558 1558 1558 1558 1559 1559 1560 1560 1560 1560 1560 1561 1561 1561
1501 1505 1510 1507 1506 1507 1512 1519 1515 1517 1519 1522 1525 1528 1530 1532 1534 1536 1538 1540 1542 1544 1545 1548 1549 1550 1551 1553 1554 1555 1556 1557 1558 1558 1558 1559 1559 1559 1559 1559 1560 1560 1560 1561 1561 1561 1561 1562 1562
1503 1509 1509 1507 1504 1505 1510 1517 1515 1517 1519 1522 1525 1527 1530 1532 1534 1536 1538 1540 1542 1544 1546 1548 1550 1551 1552 1554 1555 1556 1557 1558 1558 1558 1559 1559 1560 1560 1560 1560 1561 1561 1561 1561 1562 1562 1562 1563 1563
1508 1506 1506 1506 1504 1504 1509 1513 1514 1516 1518 1521 1524 1526 1529 1531 1534 1536 1538 1540 1542 1544 1546 1548 1550 1551 1553 1554 1556 1557 1557 1558 1559 1559 1560 1560 1560 1560 1561 1561 1561 1561 1562 1562 1562 1563 1563 1564 1564
1498 1502 1505 1504 1501 1504 1509 1512 1512 1514 1516 1519 1521 1524 1527 1529 1532 1535 1538 1540 1542 1544 1546 1548 1550 1551 1553 1554 1556 1557 1558 1559 1559 1560 1560 1561 1561 1561 1562 1562 1562 1562 1562 1563 1563 1564 1565 1565 1565
1498 1503 1505 1503 1500 1503 1508 1510 1510 1511 1514 1517 1519 1522 1525 1528 1531 1534 1536 1539 1542 1544 1546 1547 1549 1551 1553 1554 1556 1557 1558 1559 1559 1560 1561 1561 1562 1562 1562 1563 1563 1563 1563 1564 1564 1565 1565 1566 1566
1499 1502 1504 1505 1502 1502 1508 1513 1510 1509 1512 1514 1516 1519 1522 1525 1528 1532 1535 1538 1541 1543 1545 1547 1549 1551 1552 1554 1556 1557 1559 1560 1560 1561 1561 1562 1562 1562 1563 1563 1564 1564 1564 1565 1565 1566 1566 1566 1567
1502 1497 1498 1500 1506 1510 1508 1521 1510 1505 1508 1511 1514 1517 1520 1523 1526 1530 1533 1536 1539 1542 1544 1546 1549 1550 1552 1553 1555 1557 1558 1559 1560 1561 1562 1562 1563 1563 1563 1564 1564 1565 1565 1565 1566 1566 1567 1567 1567
1496 1493 1496 1498 1503 1507 1505 1512 1508 1500 1506 1508 1511 1514 1518 1521 1524 1528 1531 1534 1538 1540 1543 1545 1548 1550 1551 1553 1555 1557 1558 1559 1560 1561 1562 1563 1563 1564 1564 1564 1565 1565 1566 1566 1566 1567 1567 1567 1568
1493 1495 1496 1496 1503 1515 1502 1507 1510 1499 1500 1503 1506 1511 1515 1519 1523 1526 1530 1533 1536 1539 1542 1544 1546 1549 1551 1552 1554 1556 1557 1559 1560 1561 1562 1563 1564 1565 1565 1565 1565 1566 1566 1567 1567 1567 1567 1568 1568
1495 1505 1515 1517 1518 1512 1491 1498 1502 1492 1492 1497 1503 1508 1512 1516 1520 1524 1527 1531 1534 1537 1540 1543 1545 1547 1550 1552 1554 1555 1557 1558 1560 1561 1562 1564 1564 1565 1565 1566 1566 1566 1567 1567 1567 1568 1568 1568 1568
1495 1501 1515 1522 1517 1507 1492 1499 1495 1487 1491 1496 1501 1506 1510 1515 1518 1522 1525 1529 1532 1535 1538 1541 1544 1546 1548 1551 1553 1555 1556 1558 1560 1561 1562 1564 1565 1565 1566 1566 1566 1567 1567 1568 1568 1568 1568 1569 1569
1495 1496 1492 1502 1502 1508 1501 1497 1493 1489 1492 1496 1501 1505 1509 1512 1516 1520 1523 1527 1530 1533 1537 1540 1542 1545 1547 1550 1552 1554 1556 1557 1559 1561 1562 1563 1564 1565 1566 1566 1567 1567 1568 1568 1568 1569 1569 1569 1569
1489 1489 1495 1505 1515 1516 1507 1504 1502 1495 1494 1496 1500 1504 1508 1511 1515 1518 1522 1525 1529 1532 1535 1539 1541 1544 1546 1549 1551 1553 1555 1557 1558 1560 1562 1563 1564 1565 1566 1567 1567 1568 1568 1569 1569 1569 1569 1570 1570
1490 1492 1493 1498 1502 1513 1517 1512 1488 1490 1492 1495 1499 1502 1506 1509 1513 1516 1520 1523 1527 1530 1534 1537 1540 1543 1545 1547 1550 1552 1554 1556 1557 1559 1561 1563 1564 1565 1566 1567 1567 1568 1569 1569 1569 1569 1570 1570 1570
1484 1487 1491 1504 1504 1501 1509 1511 1485 1487 1490 1494 1498 1502 1505 1508 1512 1515 1518 1522 1525 1529 1532 1535 1538 1541 1544 1546 1548 1551 1553 1555 1557 1558 1560 1562 1564 1565 1566 1567 1568 1568 1569 1569 1570 1570 1570 1570 1571